Погода в Лоха

Эквадор     3°59′22″S   79°12′06″W
темп.,
°C
ветер,
м/с
пор.,
м/с
влажн.,
%
обл.,
%
осадки,
мм/ч
давл.,
гПа
погр.,
м
7 мая, пт
пт701:00+12всв119644 1.3 101729
04:00+12всв2195100 0.1 101637
07:00+13всв229588 1.2 101779
10:00+17всв237340 0.9 1017804
13:00+17в237786 3.1 1015741
16:00+16всв227825 1.8 1013482
19:00+12всв219655 2.8 101630
22:00+12всв229510 0.3 101943
8 мая, сб
сб801:00+11всв229643 0.3 101856
04:00+13в2291100 0.1 101666
07:00+13всв2295100 0.6 101796
10:00+13в2395100 2.9 1019224
13:00+14в2392100 3.7 1017349
16:00+13всв2493100 0.4 1016253
19:00+11всв3396100 0.4 101884
22:00+11всв3395100 0.0 102095
9 мая, вс
вс901:00+12всв339599 0.0 1018107
04:00+11всв349675 0.0 1017111
07:00+12всв349665 0.1 1018209
10:00+17всв357190 0.2 10171036
13:00+20всв365793 0.5 10141429
16:00+17в356840 0.3 1013934
19:00+12всв3396100 0.4 101784
22:00+13всв349397 0.0 1018225
10 мая, пн
пн1001:00+13всв249599 0.1 1017245
04:00+12всв2495100 0.1 1016238
07:00+12всв349478 0.3 1017287
10:00+17всв376591 0.1 10161231
13:00+19всв376248 0.4 10131393
16:00+18в356534 0.3 10121094
19:00+12всв339679 0.4 101686
22:00+13в249399 0.1 1017347
11 мая, вт
вт1101:00+13в239393 0.3 1016338
04:00+13в2393100 0.2 1015320
07:00+13в2495100 0.6 1017327
10:00+13в2394100 0.3 1018369
13:00+13в249399 1.1 1016384
16:00+14в238986 0.3 1014411
19:00+12всв339580 0.4 1016148
22:00+11всв339683 0.0 1018100